C8324 KPIE-KPIE

Flight info

Callsign C8324
Flight time 1h 7m
Altitude 5000
Route KPGD
Aircraft PA24/L-SDGRY/S

Departure

Time 2026-04-28 19:00
Airport St. Petersburg Clearwater International Airport (KPIE)

Arrival

Time 2026-04-28 20:08
Airport St. Petersburg Clearwater International Airport (KPIE)
Time Latitude Longitude Altitude Speed Heading
2026-04-28 18:41 27.90323 -82.68941 19 ft 0 kts 268°
2026-04-28 18:44 27.90323 -82.68944 19 ft 2 kts 267°
2026-04-28 18:44 27.90225 -82.68936 18 ft 11 kts 170°
2026-04-28 18:44 27.90185 -82.68915 18 ft 3 kts 82°
2026-04-28 18:45 27.90185 -82.68914 18 ft 0 kts 82°
2026-04-28 18:54 27.90188 -82.68893 18 ft 5 kts 78°
2026-04-28 18:54 27.90163 -82.68858 18 ft 12 kts 183°
2026-04-28 18:54 27.90083 -82.68859 16 ft 9 kts 180°
2026-04-28 18:54 27.90028 -82.68864 15 ft 12 kts 182°
2026-04-28 18:55 27.89915 -82.68861 17 ft 19 kts 169°
2026-04-28 18:55 27.89837 -82.68846 18 ft 14 kts 172°
2026-04-28 18:55 27.89753 -82.68832 18 ft 4 kts 171°
2026-04-28 18:55 27.89720 -82.68825 18 ft 11 kts 160°
2026-04-28 18:56 27.89696 -82.68742 17 ft 9 kts 81°
2026-04-28 18:56 27.89698 -82.68731 17 ft 0 kts 81°
2026-04-28 18:59 27.89698 -82.68729 17 ft 4 kts 81°
2026-04-28 18:59 27.89716 -82.68628 14 ft 6 kts 54°
2026-04-28 18:59 27.89873 -82.68642 14 ft 56 kts 352°
2026-04-28 19:00 27.90576 -82.68780 220 ft 82 kts 351°
2026-04-28 19:00 27.90956 -82.68854 396 ft 82 kts 351°
2026-04-28 19:00 27.91545 -82.68952 662 ft 90 kts 353°
2026-04-28 19:00 27.92141 -82.69041 1039 ft 87 kts 351°
2026-04-28 19:01 27.92715 -82.69177 1371 ft 85 kts 345°
2026-04-28 19:01 27.93292 -82.69326 1691 ft 83 kts 349°
2026-04-28 19:01 27.93828 -82.69537 2006 ft 80 kts 328°
2026-04-28 19:01 27.94197 -82.70042 2263 ft 88 kts 297°
2026-04-28 19:02 27.94202 -82.70711 2622 ft 86 kts 263°
2026-04-28 19:02 27.94098 -82.71371 2940 ft 88 kts 262°
2026-04-28 19:02 27.93940 -82.72040 3251 ft 92 kts 260°
2026-04-28 19:02 27.93807 -82.72782 3533 ft 95 kts 260°
2026-04-28 19:03 27.93634 -82.73488 3865 ft 95 kts 257°
2026-04-28 19:03 27.93464 -82.74225 4173 ft 97 kts 261°
2026-04-28 19:03 27.93330 -82.74940 4529 ft 91 kts 259°
2026-04-28 19:03 27.93128 -82.75630 4831 ft 89 kts 234°
2026-04-28 19:04 27.92578 -82.75968 5024 ft 104 kts 193°
2026-04-28 19:04 27.91852 -82.76089 5266 ft 109 kts 174°
2026-04-28 19:04 27.91037 -82.75792 5134 ft 138 kts 150°
2026-04-28 19:04 27.90184 -82.75369 5266 ft 141 kts 153°
2026-04-28 19:05 27.89222 -82.74897 5136 ft 156 kts 154°
2026-04-28 19:05 27.88158 -82.74417 5033 ft 163 kts 156°
2026-04-28 19:05 27.87118 -82.73968 5035 ft 158 kts 157°
2026-04-28 19:05 27.86073 -82.73536 5080 ft 160 kts 155°
2026-04-28 19:06 27.85041 -82.73044 5094 ft 162 kts 152°
2026-04-28 19:06 27.84038 -82.72473 5097 ft 161 kts 150°
2026-04-28 19:06 27.83086 -82.71837 5102 ft 161 kts 145°
2026-04-28 19:06 27.82116 -82.71148 5030 ft 167 kts 145°
2026-04-28 19:07 27.81143 -82.70425 5024 ft 168 kts 141°
2026-04-28 19:07 27.80206 -82.69646 5027 ft 168 kts 141°
2026-04-28 19:07 27.79255 -82.68865 5016 ft 168 kts 141°
2026-04-28 19:07 27.78303 -82.68090 5013 ft 168 kts 141°
2026-04-28 19:08 27.77358 -82.67328 5012 ft 166 kts 141°
2026-04-28 19:08 27.76415 -82.66571 5010 ft 165 kts 141°
2026-04-28 19:08 27.75488 -82.65835 5011 ft 165 kts 141°
2026-04-28 19:08 27.74552 -82.65087 5012 ft 164 kts 141°
2026-04-28 19:09 27.73616 -82.64344 5013 ft 165 kts 141°
2026-04-28 19:09 27.72679 -82.63597 5013 ft 165 kts 141°
2026-04-28 19:09 27.71740 -82.62847 5013 ft 165 kts 141°
2026-04-28 19:09 27.70806 -82.62095 5014 ft 165 kts 141°
2026-04-28 19:10 27.69876 -82.61334 5013 ft 164 kts 141°
2026-04-28 19:10 27.68952 -82.60574 5012 ft 165 kts 141°
2026-04-28 19:10 27.68024 -82.59810 5014 ft 165 kts 141°
2026-04-28 19:10 27.67114 -82.59053 5010 ft 162 kts 141°
2026-04-28 19:11 27.66208 -82.58304 5013 ft 165 kts 141°
2026-04-28 19:11 27.65276 -82.57537 5016 ft 166 kts 141°
2026-04-28 19:11 27.64342 -82.56766 5015 ft 166 kts 141°
2026-04-28 19:11 27.63418 -82.56001 5010 ft 164 kts 141°
2026-04-28 19:12 27.62501 -82.55239 5009 ft 162 kts 141°
2026-04-28 19:12 27.61601 -82.54486 5009 ft 160 kts 141°
2026-04-28 19:12 27.60707 -82.53745 5010 ft 158 kts 141°
2026-04-28 19:12 27.59824 -82.53009 5011 ft 158 kts 141°
2026-04-28 19:13 27.58938 -82.52270 5012 ft 158 kts 141°
2026-04-28 19:13 27.58048 -82.51545 5012 ft 157 kts 141°
2026-04-28 19:13 27.57158 -82.50813 5013 ft 159 kts 141°
2026-04-28 19:13 27.56274 -82.50089 5014 ft 158 kts 141°
2026-04-28 19:14 27.55376 -82.49368 5009 ft 158 kts 141°
2026-04-28 19:14 27.54496 -82.48636 5009 ft 158 kts 140°
2026-04-28 19:14 27.53594 -82.47905 5009 ft 160 kts 141°
2026-04-28 19:14 27.52705 -82.47174 5009 ft 157 kts 141°
2026-04-28 19:15 27.51816 -82.46453 5009 ft 158 kts 141°
2026-04-28 19:15 27.50926 -82.45731 5010 ft 158 kts 141°
2026-04-28 19:15 27.50033 -82.45000 5010 ft 159 kts 141°
2026-04-28 19:15 27.49443 -82.44518 5010 ft 158 kts 141°
2026-04-28 19:16 27.48248 -82.43547 5009 ft 159 kts 141°
2026-04-28 19:16 27.47358 -82.42813 5007 ft 159 kts 141°
2026-04-28 19:16 27.46466 -82.42078 5007 ft 159 kts 141°
2026-04-28 19:16 27.45575 -82.41344 5007 ft 159 kts 141°
2026-04-28 19:17 27.44683 -82.40606 5008 ft 160 kts 141°
2026-04-28 19:17 27.43789 -82.39862 5004 ft 159 kts 141°
2026-04-28 19:17 27.42899 -82.39126 5002 ft 158 kts 140°
2026-04-28 19:17 27.42065 -82.38339 5004 ft 158 kts 134°
2026-04-28 19:18 27.41331 -82.37417 5004 ft 158 kts 130°
2026-04-28 19:18 27.40476 -82.36633 5004 ft 159 kts 142°
2026-04-28 19:18 27.39547 -82.35962 5003 ft 159 kts 146°
2026-04-28 19:18 27.38600 -82.35308 5003 ft 159 kts 146°
2026-04-28 19:19 27.37655 -82.34655 5004 ft 160 kts 146°
2026-04-28 19:19 27.36709 -82.34001 5004 ft 159 kts 146°
2026-04-28 19:19 27.35769 -82.33347 5003 ft 159 kts 146°
2026-04-28 19:19 27.34830 -82.32690 5004 ft 159 kts 146°
2026-04-28 19:20 27.33895 -82.32034 5004 ft 158 kts 146°
2026-04-28 19:20 27.32955 -82.31387 5004 ft 159 kts 146°
2026-04-28 19:20 27.32006 -82.30755 5004 ft 161 kts 146°
2026-04-28 19:20 27.31039 -82.30127 5004 ft 160 kts 146°
2026-04-28 19:21 27.30072 -82.29489 5003 ft 162 kts 146°
2026-04-28 19:21 27.29102 -82.28856 5002 ft 160 kts 146°
2026-04-28 19:21 27.28144 -82.28215 5002 ft 160 kts 146°
2026-04-28 19:21 27.27195 -82.27566 5002 ft 159 kts 146°
2026-04-28 19:22 27.26244 -82.26921 5004 ft 160 kts 146°
2026-04-28 19:22 27.25614 -82.26494 5005 ft 160 kts 146°
2026-04-28 19:22 27.24346 -82.25620 5004 ft 161 kts 146°
2026-04-28 19:22 27.23398 -82.24946 5005 ft 161 kts 144°
2026-04-28 19:23 27.22460 -82.24267 5005 ft 162 kts 143°
2026-04-28 19:23 27.21513 -82.23586 5004 ft 162 kts 144°
2026-04-28 19:23 27.20566 -82.22907 5003 ft 160 kts 144°
2026-04-28 19:23 27.19636 -82.22219 5003 ft 160 kts 144°
2026-04-28 19:24 27.18707 -82.21523 5003 ft 158 kts 144°
2026-04-28 19:24 27.17791 -82.20853 5002 ft 160 kts 144°
2026-04-28 19:24 27.16846 -82.20173 5003 ft 161 kts 143°
2026-04-28 19:24 27.15904 -82.19495 5002 ft 161 kts 144°
2026-04-28 19:25 27.14960 -82.18815 5004 ft 161 kts 142°
2026-04-28 19:25 27.14029 -82.18109 5003 ft 161 kts 142°
2026-04-28 19:25 27.13103 -82.17401 5002 ft 161 kts 142°
2026-04-28 19:25 27.12188 -82.16695 5002 ft 161 kts 142°
2026-04-28 19:26 27.11262 -82.15988 5003 ft 160 kts 142°
2026-04-28 19:26 27.10339 -82.15282 5002 ft 160 kts 142°
2026-04-28 19:26 27.09413 -82.14574 5003 ft 161 kts 142°
2026-04-28 19:26 27.08483 -82.13864 5003 ft 161 kts 142°
2026-04-28 19:27 27.07549 -82.13155 5002 ft 163 kts 142°
2026-04-28 19:27 27.06614 -82.12444 5002 ft 161 kts 142°
2026-04-28 19:27 27.05696 -82.11744 5002 ft 162 kts 142°
2026-04-28 19:27 27.04769 -82.11034 5002 ft 162 kts 142°
2026-04-28 19:28 27.03827 -82.10311 5003 ft 161 kts 142°
2026-04-28 19:28 27.02914 -82.09611 5002 ft 161 kts 142°
2026-04-28 19:28 27.01987 -82.08896 5003 ft 161 kts 141°
2026-04-28 19:28 27.01065 -82.08177 5004 ft 162 kts 142°
2026-04-28 19:29 27.00135 -82.07464 5003 ft 162 kts 142°
2026-04-28 19:29 26.99508 -82.06984 5004 ft 161 kts 142°
2026-04-28 19:29 26.98277 -82.06042 5004 ft 162 kts 142°
2026-04-28 19:29 26.97348 -82.05332 5004 ft 162 kts 141°
2026-04-28 19:30 26.96424 -82.04616 5002 ft 161 kts 141°
2026-04-28 19:30 26.95460 -82.03871 4610 ft 178 kts 141°
2026-04-28 19:30 26.94481 -82.03080 4287 ft 166 kts 141°
2026-04-28 19:30 26.93627 -82.02352 3803 ft 151 kts 139°
2026-04-28 19:31 26.92851 -82.01659 3324 ft 143 kts 139°
2026-04-28 19:31 26.91933 -82.01250 2698 ft 148 kts 169°
2026-04-28 19:31 26.91006 -82.00812 1898 ft 138 kts 150°
2026-04-28 19:31 26.90581 -82.00022 1211 ft 123 kts 71°
2026-04-28 19:32 26.91054 -81.99219 257 ft 127 kts 45°
2026-04-28 19:32 26.91701 -81.98788 38 ft 83 kts 23°
2026-04-28 19:32 26.92158 -81.98523 153 ft 73 kts 21°
2026-04-28 19:32 26.92628 -81.98281 416 ft 78 kts 18°
2026-04-28 19:33 26.93141 -81.98089 797 ft 78 kts 15°
2026-04-28 19:33 26.93693 -81.98060 1051 ft 89 kts 351°
2026-04-28 19:33 26.94353 -81.98208 1369 ft 98 kts 348°
2026-04-28 19:33 26.94999 -81.98398 1781 ft 93 kts 346°
2026-04-28 19:34 26.95637 -81.98617 2118 ft 97 kts 343°
2026-04-28 19:34 26.96274 -81.98821 2521 ft 92 kts 353°
2026-04-28 19:34 26.96856 -81.98986 2914 ft 85 kts 338°
2026-04-28 19:34 26.97433 -81.99245 3166 ft 94 kts 346°
2026-04-28 19:35 26.98054 -81.99399 3485 ft 92 kts 351°
2026-04-28 19:35 26.98605 -81.99583 3895 ft 79 kts 342°
2026-04-28 19:35 26.99160 -81.99737 4219 ft 84 kts 349°
2026-04-28 19:35 26.99694 -81.99917 4581 ft 77 kts 348°
2026-04-28 19:36 27.00178 -82.00124 4888 ft 77 kts 338°
2026-04-28 19:36 27.00710 -82.00421 4978 ft 103 kts 341°
2026-04-28 19:36 27.01305 -82.00749 5214 ft 104 kts 335°
2026-04-28 19:36 27.02049 -82.01165 5108 ft 137 kts 342°
2026-04-28 19:37 27.03014 -82.01409 5202 ft 140 kts 358°
2026-04-28 19:37 27.03705 -82.01436 5052 ft 153 kts
2026-04-28 19:37 27.05026 -82.01483 5412 ft 130 kts
2026-04-28 19:37 27.05952 -82.01542 5545 ft 133 kts 355°
2026-04-28 19:38 27.06967 -82.01696 5434 ft 147 kts 354°
2026-04-28 19:38 27.08024 -82.01878 5148 ft 161 kts 353°
2026-04-28 19:38 27.09131 -82.02061 4992 ft 158 kts 354°
2026-04-28 19:38 27.10199 -82.02238 4980 ft 149 kts 353°
2026-04-28 19:39 27.11207 -82.02404 4990 ft 146 kts 353°
2026-04-28 19:39 27.12200 -82.02576 4993 ft 143 kts 353°
2026-04-28 19:39 27.13179 -82.02755 4999 ft 140 kts 353°
2026-04-28 19:39 27.14147 -82.02924 5001 ft 141 kts 353°
2026-04-28 19:40 27.15114 -82.03091 4997 ft 141 kts 354°
2026-04-28 19:40 27.16092 -82.03253 5000 ft 144 kts 353°
2026-04-28 19:40 27.17109 -82.03429 5003 ft 149 kts 354°
2026-04-28 19:40 27.18137 -82.03609 5003 ft 154 kts 354°
2026-04-28 19:41 27.19208 -82.03801 5013 ft 157 kts 352°
2026-04-28 19:41 27.20295 -82.03961 5008 ft 157 kts 355°
2026-04-28 19:41 27.21378 -82.04139 5002 ft 157 kts 353°
2026-04-28 19:41 27.22456 -82.04325 4997 ft 157 kts 354°
2026-04-28 19:42 27.23535 -82.04498 4992 ft 157 kts 353°
2026-04-28 19:42 27.24619 -82.04674 4988 ft 156 kts 354°
2026-04-28 19:42 27.25702 -82.04857 4992 ft 156 kts 353°
2026-04-28 19:42 27.26410 -82.04992 4991 ft 156 kts 354°
2026-04-28 19:43 27.27841 -82.05237 4992 ft 157 kts 353°
2026-04-28 19:43 27.28924 -82.05425 4991 ft 157 kts 353°
2026-04-28 19:43 27.30005 -82.05618 4989 ft 155 kts 354°
2026-04-28 19:43 27.30709 -82.05747 4991 ft 155 kts 353°
2026-04-28 19:44 27.31785 -82.05947 4994 ft 156 kts 354°
2026-04-28 19:44 27.33208 -82.06241 4985 ft 158 kts 339°
2026-04-28 19:44 27.33804 -82.06728 4988 ft 159 kts 318°
2026-04-28 19:44 27.34579 -82.07626 4991 ft 161 kts 318°
2026-04-28 19:45 27.35351 -82.08548 4994 ft 163 kts 316°
2026-04-28 19:45 27.36123 -82.09456 4990 ft 163 kts 317°
2026-04-28 19:45 27.36905 -82.10383 4993 ft 163 kts 316°
2026-04-28 19:45 27.37683 -82.11311 4991 ft 164 kts 317°
2026-04-28 19:46 27.38473 -82.12230 4989 ft 162 kts 317°
2026-04-28 19:46 27.39256 -82.13132 4988 ft 161 kts 317°
2026-04-28 19:46 27.40033 -82.14039 4985 ft 161 kts 317°
2026-04-28 19:46 27.40800 -82.14959 4992 ft 161 kts 316°
2026-04-28 19:47 27.41569 -82.15896 4990 ft 164 kts 317°
2026-04-28 19:47 27.42350 -82.16827 4992 ft 163 kts 317°
2026-04-28 19:47 27.43125 -82.17748 4990 ft 164 kts 316°
2026-04-28 19:47 27.43909 -82.18686 4991 ft 164 kts 316°
2026-04-28 19:48 27.44698 -82.19623 4989 ft 165 kts 317°
2026-04-28 19:48 27.45494 -82.20558 4987 ft 165 kts 317°
2026-04-28 19:48 27.46285 -82.21486 4987 ft 164 kts 316°
2026-04-28 19:48 27.47076 -82.22410 4985 ft 162 kts 317°
2026-04-28 19:49 27.47836 -82.23328 4988 ft 163 kts 316°
2026-04-28 19:49 27.48612 -82.24262 4990 ft 163 kts 316°
2026-04-28 19:49 27.49395 -82.25194 4991 ft 164 kts 316°
2026-04-28 19:49 27.50192 -82.26119 4989 ft 164 kts 317°
2026-04-28 19:50 27.51760 -82.27963 4985 ft 163 kts 316°
2026-04-28 19:50 27.52534 -82.28894 4984 ft 163 kts 317°
2026-04-28 19:50 27.53321 -82.29816 4985 ft 163 kts 317°
2026-04-28 19:51 27.54094 -82.30745 4991 ft 162 kts 317°
2026-04-28 19:51 27.54870 -82.31673 4991 ft 163 kts 316°
2026-04-28 19:51 27.55649 -82.32615 4990 ft 165 kts 317°
2026-04-28 19:51 27.56449 -82.33536 4991 ft 164 kts 317°
2026-04-28 19:52 27.57228 -82.34475 4987 ft 164 kts 316°
2026-04-28 19:52 27.57902 -82.35510 4979 ft 166 kts 297°
2026-04-28 19:52 27.58317 -82.36726 4989 ft 166 kts 294°
2026-04-28 19:52 27.58720 -82.37953 4990 ft 167 kts 294°
2026-04-28 19:53 27.59130 -82.39158 4992 ft 166 kts 297°
2026-04-28 19:53 27.59617 -82.40346 4992 ft 167 kts 298°
2026-04-28 19:53 27.60108 -82.41545 4989 ft 169 kts 299°
2026-04-28 19:53 27.60618 -82.42745 4988 ft 170 kts 298°
2026-04-28 19:54 27.61128 -82.43941 4984 ft 169 kts 299°
2026-04-28 19:54 27.61642 -82.45132 4986 ft 169 kts 298°
2026-04-28 19:54 27.62143 -82.46338 4986 ft 169 kts 299°
2026-04-28 19:54 27.62654 -82.47532 4984 ft 168 kts 299°
2026-04-28 19:55 27.63149 -82.48704 4989 ft 167 kts 299°
2026-04-28 19:55 27.63655 -82.49883 4988 ft 167 kts 299°
2026-04-28 19:55 27.64165 -82.51060 5004 ft 166 kts 299°
2026-04-28 19:55 27.64675 -82.52229 5005 ft 167 kts 299°
2026-04-28 19:56 27.65174 -82.53408 4999 ft 165 kts 300°
2026-04-28 19:56 27.65646 -82.54533 4987 ft 154 kts 298°
2026-04-28 19:56 27.66085 -82.55563 4987 ft 139 kts 298°
2026-04-28 19:56 27.66493 -82.56540 4899 ft 135 kts 299°
2026-04-28 19:57 27.66870 -82.57468 4914 ft 126 kts 299°
2026-04-28 19:57 27.67214 -82.58356 4912 ft 121 kts 299°
2026-04-28 19:57 27.67542 -82.59216 4915 ft 116 kts 299°
2026-04-28 19:57 27.67854 -82.60040 4914 ft 113 kts 299°
2026-04-28 19:58 27.68163 -82.60846 4903 ft 111 kts 299°
2026-04-28 19:58 27.68480 -82.61633 4898 ft 109 kts 299°
2026-04-28 19:58 27.68823 -82.62398 4757 ft 118 kts 313°
2026-04-28 19:58 27.69486 -82.62906 4640 ft 113 kts 343°
2026-04-28 19:59 27.70219 -82.63217 4525 ft 112 kts 343°
2026-04-28 19:59 27.70916 -82.63542 4427 ft 102 kts 341°
2026-04-28 19:59 27.71511 -82.63873 4353 ft 91 kts 338°
2026-04-28 19:59 27.72062 -82.64222 4210 ft 92 kts 337°
2026-04-28 20:00 27.72621 -82.64578 4095 ft 91 kts 336°
2026-04-28 20:00 27.73164 -82.64959 3926 ft 92 kts 332°
2026-04-28 20:00 27.73684 -82.65381 3784 ft 93 kts 328°
2026-04-28 20:00 27.74227 -82.65771 3649 ft 92 kts 346°
2026-04-28 20:01 27.74823 -82.65974 3494 ft 88 kts 348°
2026-04-28 20:01 27.75398 -82.66185 3339 ft 89 kts 347°
2026-04-28 20:01 27.75976 -82.66411 3207 ft 89 kts 346°
2026-04-28 20:01 27.76565 -82.66605 3055 ft 87 kts 350°
2026-04-28 20:02 27.77150 -82.66772 2917 ft 86 kts 351°
2026-04-28 20:02 27.77733 -82.66905 2788 ft 84 kts 352°
2026-04-28 20:02 27.78311 -82.67033 2666 ft 85 kts 354°
2026-04-28 20:02 27.78881 -82.67144 2542 ft 83 kts 352°
2026-04-28 20:03 27.79454 -82.67283 2423 ft 86 kts 353°
2026-04-28 20:03 27.80052 -82.67380 2295 ft 87 kts 355°
2026-04-28 20:03 27.80641 -82.67491 2177 ft 83 kts 355°
2026-04-28 20:03 27.81202 -82.67563 2079 ft 81 kts 360°
2026-04-28 20:04 27.81762 -82.67597 1987 ft 80 kts 356°
2026-04-28 20:04 27.82322 -82.67631 1844 ft 82 kts
2026-04-28 20:04 27.82923 -82.67664 1686 ft 88 kts 358°
2026-04-28 20:04 27.83492 -82.67731 1644 ft 80 kts 354°
2026-04-28 20:05 27.84069 -82.67793 1484 ft 83 kts 357°
2026-04-28 20:05 27.84640 -82.67863 1342 ft 85 kts 357°
2026-04-28 20:05 27.85226 -82.67918 1188 ft 84 kts 357°
2026-04-28 20:05 27.85789 -82.67975 1082 ft 80 kts 356°
2026-04-28 20:06 27.86364 -82.68032 924 ft 84 kts 356°
2026-04-28 20:06 27.86943 -82.68120 745 ft 83 kts 351°
2026-04-28 20:06 27.87521 -82.68221 592 ft 85 kts 347°
2026-04-28 20:06 27.88103 -82.68338 427 ft 84 kts 347°
2026-04-28 20:07 27.88665 -82.68444 300 ft 79 kts 347°
2026-04-28 20:07 27.89016 -82.68505 235 ft 75 kts 349°
2026-04-28 20:07 27.89681 -82.68602 83 ft 70 kts 348°
2026-04-28 20:07 27.90137 -82.68686 23 ft 61 kts 346°
2026-04-28 20:08 27.90520 -82.68758 22 ft 50 kts 346°
2026-04-28 20:08 27.90809 -82.68818 17 ft 32 kts 351°
2026-04-28 20:08 27.91002 -82.68850 17 ft 30 kts 351°
2026-04-28 20:08 27.91182 -82.68881 15 ft 20 kts 347°
2026-04-28 20:09 27.91230 -82.68958 16 ft 7 kts 262°
2026-04-28 20:09 27.91206 -82.69026 18 ft 13 kts 206°
2026-04-28 20:09 27.91093 -82.69011 18 ft 21 kts 171°
2026-04-28 20:09 27.90943 -82.68987 18 ft 23 kts 173°
2026-04-28 20:10 27.90781 -82.68958 18 ft 24 kts 171°
2026-04-28 20:10 27.90628 -82.68931 19 ft 20 kts 171°
2026-04-28 20:10 27.90515 -82.68911 19 ft 14 kts 171°
2026-04-28 20:10 27.90428 -82.68896 18 ft 12 kts 172°
2026-04-28 20:11 27.90376 -82.68927 19 ft 9 kts 258°
2026-04-28 20:11 27.90327 -82.68944 19 ft 7 kts 174°
2026-04-28 20:11 27.90281 -82.68939 18 ft 6 kts 196°
2026-04-28 20:11 27.90276 -82.68958 18 ft 0 kts 267°
2026-04-28 20:14 27.90277 -82.68959 19 ft 1 kts 270°
2026-04-28 20:15 27.90275 -82.68953 18 ft 1 kts 91°
2026-04-28 20:15 27.90274 -82.68957 18 ft 2 kts 237°